AirNav   Bose Proflight aviation headeet
 
 1464 users online  

I67 Cincinnati West Airport
Harrison, Ohio, USA

GOING TO HARRISON?


FAA INFORMATION EFFECTIVE 03 JANUARY 2019

Location

FAA Identifier: I67
Lat/Long: 39-15-33.4000N / 084-46-27.5000W
39-15.556667N / 084-46.458333W
39.2592778 / -84.7743056
(estimated)
Elevation: 584.1 ft. / 178.0 m (surveyed)
Variation: 05W (2010)
From city: 2 miles E of HARRISON, OH
Time zone: UTC -5 (UTC -4 during Daylight Saving Time)
Zip code: 45030

Airport Operations

Airport use: Open to the public
Activation date: 09/1945
Control tower: no
ARTCC: INDIANAPOLIS CENTER
FSS: DAYTON FLIGHT SERVICE STATION
NOTAMs facility: DAY (NOTAM-D service available)
Attendance: MON-SAT 0830-1800, ALL SUN 0900-1700
UNATNDD ALL MAJOR HOLS.
Wind indicator: lighted
Segmented circle: no
Lights: ACTVT MIRL RY 01/19-CTAF.
Beacon: white-green (lighted land airport)
Operates sunset to sunrise.

Airport Communications

CTAF/UNICOM: 123.0
WX AWOS-3PT: 118.15 (513-569-4964)
CINCINNATI APPROACH: 128.7
CINCINNATI DEPARTURE: 128.7
WX ASOS at HAO (13 nm NE): 121.425 (513-863-6137)
WX ASOS at CVG (14 nm S): PHONE 859-767-8210
WX AWOS-3PT at OXD (15 nm N): 118.625 (513-273-2032)
WX ASOS at LUK (19 nm SE): PHONE 513-321-6291

Nearby radio navigation aids

VOR radial/distance  VOR name  Freq  Var
CVGr351/15.0CINCINNATI VORTAC117.3004W

 
NDB name  Hdg/Dist  Freq  Var  ID
HOOK FIELD231/20.923904WHKF .... -.- ..-.
CINCINNATI291/21.033504WLUK .-.. ..- -.-
BATESVILLE108/23.125405WHLB .... .-.. -...
SPORTYS297/28.224504WPWF .--. .-- ..-.

Airport Services

Fuel available: 100LL
FOR JET A AVBLTY CALL (513) 367-0231.
Parking: hangars and tiedowns
Airframe service: MAJOR
Powerplant service: MAJOR
Bottled oxygen: NONE
Bulk oxygen: NONE

Runway Information

Runway 1/19

Dimensions: 2808 x 60 ft. / 856 x 18 m
Surface: asphalt, in good condition
Runway edge lights: medium intensity
RUNWAY 1  RUNWAY 19
Latitude: 39-15.324843N39-15.787370N
Longitude: 084-46.459843W084-46.456903W
Elevation: 581.4 ft.580.7 ft.
Gradient: 0.1%0.1%
Traffic pattern: leftleft
Runway heading: 005 magnetic, 000 true185 magnetic, 180 true
Displaced threshold: 75 ft.219 ft.
Markings: nonprecision, in fair conditionnonprecision, in fair condition
Visual slope indicator: 2-light PAPI on left (3.00 degrees glide path)2-light PAPI on left (3.50 degrees glide path)
UNUSBL BYD 9 DEGS RIGHT AND LEFT OF CNTRLN.
Runway end identifier lights: nono
Touchdown point: yes, no lightsyes, no lights
Obstructions: 16 ft. road, 257 ft. from runway, 260 ft. both sides of centerline, 3:1 slope to clear
RY 01 20:1 TO DISPLACED THRESHOLD.
48 ft. tree, 460 ft. from runway, 140 ft. right of centerline, 5:1 slope to clear
RY 19, 10 FT BLDGS 180 FT FM DER 140 FT RIGHT.

Airport Ownership and Management from official FAA records

Ownership: Publicly-owned
Owner: CINCY ST TECH & COM COLLEGE
3520 CENTRAL PARKWAY
CINCINNATI, OH 45223
Phone 513-569-5786
Manager: WILL BERINGER
10004 WEST ROAD
HARRISON, OH 45030
Phone 513-367-5070

Airport Operational Statistics

Aircraft based on the field: 44
Single engine airplanes: 40
Multi engine airplanes: 4
    
Aircraft operations: avg 79/day *
91% local general aviation
9% transient general aviation
<1% air taxi
<1% military
* for 12-month period ending 12 May 2017

Instrument Procedures

NOTE: All procedures below are presented as PDF files. If you need a reader for these files, you should download the free Adobe Reader.

NOT FOR NAVIGATION. Please procure official charts for flight.
FAA instrument procedures published for use from 3 January 2019 at 0901Z to 31 January 2019 at 0900Z.

 
IAPs - Instrument Approach Procedures
RNAV (GPS) RWY 19   download (187KB)
VOR RWY 19   download (201KB)
NOTE: Special Take-Off Minimums/Departure Procedures apply   download (164KB)

Other nearby airports with instrument procedures:

KHAO - Butler County Regional Airport-Hogan Field (13 nm NE)
KCVG - Cincinnati/Northern Kentucky International Airport (14 nm S)
KOXD - Miami University Airport (15 nm N)
KLUK - Cincinnati Municipal Airport-Lunken Field (19 nm SE)
KMWO - Middletown Regional Airport/Hook Field (24 nm NE)
 
Loc | Ops | Rwys | IFR | FBO | Links
Com | Nav | Svcs | Stats | Notes
Area around I67 (Cincinnati West Airport)
 
Road maps at: MapQuest Bing Google
 
Aerial photo
WARNING: Photo may not be current or correct
Aerial photo of I67 (Cincinnati West Airport)
Photo courtesy of Harrison Social Flites Flying Club
Photo taken 08-Feb-2013
looking north.

Do you have a better or more recent aerial photo of Cincinnati West Airport that you would like to share? If so, please send us your photo.

 
Sectional chart

 
Airport distance calculator
Flying to Cincinnati West Airport? Find the distance to fly.

From to I67

Sunrise and sunset
Times for 23-Jan-2019
 Local
(UTC-5)
 Zulu
(UTC)
Morning civil twilight07:2512:25
Sunrise07:5412:54
Sunset17:4822:48
Evening civil twilight18:1723:17

Current date and time
Zulu (UTC)  23-Jan-2019 15:14:15
Local (UTC-5)  23-Jan-2019 10:14:15
 
METAR
KI67 231455Z AUTO 20008KT 5SM SCT039 BKN050 OVC075 07/06 A2983 RMK AO1 P0008
KCVG 
14nm S 
231452Z 18010KT 4SM -RA BR BKN030 OVC040 09/07 A2983 RMK AO2 SLP102 P0013 60029 T00890072 56006 $
KHAO 
14nm NE 
231453Z AUTO VRB04KT 3SM RA BR FEW037 BKN050 OVC060 07/06 A2984 RMK AO2 SLP108 P0014 60024 T00720061 58004
KOXD 
15nm N 
231456Z AUTO 19012G16KT 7SM -RA OVC005 07/07 A2980 RMK AO2 P0005 60009 T00690069
KLUK 
19nm SE 
231453Z 21004KT 3SM RA BR OVC036 08/07 A2987 RMK AO2 SLP116 P0009 60022 T00780067 56006
TAF
KCVG 
14nm S 
231133Z 2312/2418 17015KT P6SM -RA FEW025 OVC060 WS020/20050KT FM231300 19014G22KT 5SM RA BR OVC025 WS020/21055KT FM231600 21014G24KT 5SM RA BR OVC015 WS020/21050KT FM232100 25012G20KT 5SM -RA BR OVC015 FM240100 28010KT P6SM VCSH OVC008 FM241200 29007KT P6SM OVC015
KLUK 
19nm SE 
231133Z 2312/2412 18011KT P6SM -RA FEW028 OVC050 WS020/20050KT FM231400 19014G22KT 5SM RA BR OVC028 WS020/21055KT FM231600 21014G24KT 5SM RA BR OVC015 WS020/21050KT FM232100 25012G20KT 5SM -RA BR OVC015 FM240200 28010KT P6SM VCSH OVC008 FM241000 30008KT P6SM BKN015
NOTAMs
Click for the latest NOTAMs
NOTAMs are issued by the DoD/FAA and will open in a separate window not controlled by AirNav.

 

 
 

FBO, Fuel Providers, and Aircraft Ground Support

  
 Business Name 
 
 Contact 
 
 Services / Description 
 
Fuel Prices
 
Comments
  
Cincinnati West Airport 513-367-1201
[web site]
[email]

Like us on facebook
Airport management, Aviation fuel, Aircraft parking (ramp or tiedown), Passenger terminal and lounge, Pilot supplies, Rental cars, ...
 
Crew car   Enterprise Rent-A-Car  
 
More info about Cincinnati West Airport
EPIC
100LL
AS $4.49 
 Updated 12-Jan-2019
 
   1 read write
AS=Assisted/Self Service
Update Fuel Prices
 

Would you like to see your business listed on this page?

 If your business provides an interesting product or service to pilots, flight crews, aircraft, or users of the Cincinnati West Airport, you should consider listing it here.  To start the listing process, click on the button below
 
Add a business
 

Other Pages about Cincinnati West Airport

www.cincinnatistate.edu/...
 
Update a link
 
Copyright © AirNav, LLC. All rights reserved. Privacy Policy  Contact